www.pogodaiklimat.ru

Погода и климат >> Архив погоды >> Индонезия >> Купанг


ПОГОДА в Купанге

  • Прогноз погоды в Купанге
  • Монитор погоды в Купанге

АРХИВ ПОГОДЫ в Купанге

Время (UTC), дата Ветер
(напр.,м/с)
 
Видим.   Явления Облачность Т
(С)
Тd
(С)
f
(%)
Тe
(С)
Тes
(С)
Комфортность P
(гПа)
Po
(гПа)
Тmin
(С)
Tmax
(С)
R
(мм)
R24
(мм)
S
(см)
18 11.07 ЮВ 4 8000 м 3/1 540 м
[Cu hum As trans Ci fib]
+23.2 +20.0 82 +30 +30 очень
душно
1016.8 1004.6
21 11.07 В 5 8000 м 3/1 540 м
[Cu hum As trans Ci fib]
+22.4 +19.8 85 +28 +28 душно 1016.6 1005.1
00 12.07 В 5 10 км 1/1 540 м
[Cu hum Ci fib]
+25.0 +20.7 77 +31 +33 очень
душно
1017.5 1005.2 +22.4
03 12.07 В 6 10 км 1/1 540 м
[Cu hum Ci fib]
+30.0 +19.2 52 +35 +42 очень
душно
1015.7 1003.5
06 12.07 ЮВ 6 10 км 1/1 600 м
[Cu hum Ci fib]
+30.7 +18.8 49 +36 +39 очень
душно
1012.9 1000.7
09 12.07 ЮВ 6 10 км 1/1 600 м
[Cu hum Ci fib]
+27.7 +19.1 59 +33 +33 очень
душно
1013.8 1001.6
12 12.07 В 6 8000 м 1/1 600 м
[Cu hum Ci fib]
+24.7 +19.8 74 +30 +30 очень
душно
1016.2 1004.0 +31.7
15 12.07 ЮВ 4 8000 м 1/1 600 м
[Cu hum Ci fib]
+23.4 +19.3 78 +30 +30 очень
душно
1016.6 1004.4
18 12.07 В 3 8000 м 1/1 600 м
[Cu hum Ci fib]
+22.0 +19.0 83 +27 +27 душно 1016.2 1003.9
21 12.07 В 1 8000 м 1/1 600 м
[Cu hum Ci fib]
+20.5 +19.0 91 +26 +26 душно 1016.2 1003.9
00 13.07 В 2 8000 м 4/3 540 м
[Cu hum As trans Ci fib]
+23.8 +20.6 82 +30 +32 очень
душно
1016.9 1004.7 +20.2
03 13.07 В 6 10 км 5/4 500 м
[Cu hum Ci fib]
+30.0 +19.3 53 +36 +40 очень
душно
1015.6 1003.3
06 13.07 В 6 10 км 3/3 540 м
[Cu hum Ci fib]
+31.4 +20.2 51 +38 +41 очень
душно
1012.7 1000.5
09 13.07 ЮВ 8 10 км 3/3 540 м
[Cu hum Ci fib]
+27.5 +19.9 63 +33 +33 очень
душно
1013.2 1001.0
12 13.07 ЮВ 5 8000 м 5/4 540 м
[Cu hum Ci fib]
+25.2 +20.9 77 +32 +32 очень
душно
1015.6 1003.4 +31.6
15 13.07 ЮВ 6 8000 м 3/3 540 м
[Cu hum Ci fib]
+23.8 +20.0 79 +29 +29 душно 1015.5 1003.3
18 13.07 СВ 2 8000 м 9/6 540 м
[Cu med, cong As op Ci sp]
+23.4 +20.8 85 +31 +31 очень
душно
1015.4 1003.2
21 13.07 В 3 8000 м 9/6 300 м
[Cu med, cong Ac trans Ci sp]
+22.8 +20.8 88 +30 +30 очень
душно
1015.3 1003.0
00 14.07 В 3 10 км 4/1 570 м
[Cu hum Ac trans Ci fib]
+23.6 +21.3 87 +30 +33 очень
душно
1016.0 1003.8 +22.6 0.8
03 14.07 В 8 10 км 3/3 540 м
[Cu hum Ci fib]
+29.6 +19.2 54 +35 +37 очень
душно
1015.3 1003.1
06 14.07 В 8 10 км 3/3 540 м
[Cu hum Ci fib]
+29.4 +19.3 55 +35 +36 очень
душно
1012.3 1000.1
09 14.07 ЮВ 8 10 км 3/1 540 м
[Cu hum As trans Ci fib]
+27.0 +19.0 62 +32 +32 очень
душно
1013.2 1001.0
12 14.07 В 5 8000 м 3/3 540 м
[Cu hum As trans Ci fib]
+25.0 +20.5 76 +31 +31 очень
душно
1015.2 1003.0 +30.2
15 14.07 ЮВ 4 8000 м 3/1 540 м
[Cu hum As trans Ci fib]
+23.9 +19.8 78 +29 +29 душно 1015.7 1003.5
18 14.07 В 5 8000 м 1/1 540 м
[Cu hum Ci fib]
+23.8 +18.8 74 +29 +29 душно 1015.2 1002.9
21 14.07 В 4 8000 м 3/1 540 м
[Cu hum Ci fib]
+22.8 +20.0 84 +29 +29 очень
душно
1015.3 1003.0
00 15.07 В 7 10 км 3/1 600 м
[Cu hum Ac trans Ci fib]
+25.2 +19.0 69 +30 +31 душно 1015.4 1003.2 +22.6
03 15.07 В 10 10 км 3/3 540 м
[Cu hum Ac trans Ci fib]
+28.8 +19.7 58 +35 +35 очень
душно
1014.5 1002.3
06 15.07 ЮВ 8 10 км 3/3 540 м
[Cu hum Ci fib]
+28.4 +19.3 58 +34 +35 очень
душно
1011.9 999.7
09 15.07 В 8 10 км 3/3 540 м
[Cu hum Ci fib]
+27.0 +18.8 61 +32 +32 очень
душно
1012.2 1000.0
12 15.07 В 5 8000 м 4/1 600 м
[Cu hum Ci fib]
+24.4 +20.1 77 +30 +30 очень
душно
1014.6 1002.4 +29.4
15 15.07 В 4 8000 м 4/1 600 м
[Cu hum Ci fib]
+23.7 +19.9 79 +29 +29 душно 1015.1 1002.9
18 15.07 В 4 8000 м 8/1 540 м
[Cu hum Ac trans Ci fib]
+23.6 +20.1 81 +29 +29 душно 1014.5 1002.3
21 15.07 ЮВ 3 8000 м 4/1 600 м
[Cu hum Ci fib]
+22.4 +20.1 87 +29 +29 очень
душно
1014.6 1002.4
00 16.07 В 6 10 км 9/1 540 м
[Cu hum Ac trans Ci fib]
+24.6 +20.3 77 +30 +31 очень
душно
1015.7 1003.4 +22.0
03 16.07 В 8 10 км 5/5 540 м
[Cu hum Ac trans Ci fib]
+28.9 +20.8 62 +36 +38 очень
душно
1014.5 1002.3
06 16.07 В 8 10 км 5/4 540 м
[Cu hum Ci fib]
+29.4 +21.2 61 +37 +38 очень
душно
1012.2 1000.0
09 16.07 ЮВ 8 8000 м 9/6 540 м
[Cu hum Ac As Ci fib]
+27.6 +20.1 64 +34 +34 очень
душно
1012.4 1000.2
12 16.07 В 7 8000 м 9/3 540 м
[Cu med, cong Ac trans Ci fib]
+25.3 +20.4 74 +31 +31 очень
душно
1013.9 1001.7 +30.0
15 16.07 В 5 8000 м 8/3 540 м
[Cu hum Ac trans Ci fib]
+25.0 +20.5 76 +31 +31 очень
душно
1014.0 1001.4
18 16.07 В 7 8000 м 9/4 540 м
[Cu med, cong Ac trans Ci fib]
+24.9 +20.3 76 +31 +31 очень
душно
1013.8 1001.5
21 16.07 В 4 8000 м 6/4 540 м
[Cu med, cong Ac trans Ci fib]
+24.3 +20.4 79 +30 +30 очень
душно
1013.5 1001.2
00 17.07 В 11 10 км 4/4 540 м
[Cu hum Ac trans Ci fib]
+25.8 +20.9 74 +32 +32 очень
душно
1014.2 1002.0 +23.8
03 17.07 В 11 10 км 3/3 540 м
[Cu hum Ci fib]
+29.4 +20.6 59 +36 +37 очень
душно
1013.1 1000.9
06 17.07 В 7 10 км 1/1 540 м
[Cu hum Ci fib]
+30.2 +19.7 53 +36 +39 очень
душно
1010.6 998.4
09 17.07 ЮВ 6 10 км 1/1 540 м
[Cu hum Ci fib]
+28.2 +18.9 57 +33 +34 очень
душно
1010.6 998.4
12 17.07 В 4 8000 м 3/1 600 м
[Cu hum Ci fib]
+25.0 +19.6 72 +30 +30 душно 1013.0 1000.8 +30.2
15 17.07 В 5 8000 м 3/1 600 м
[Cu hum Ci fib]
+24.2 +19.8 76 +29 +29 душно 1013.4 1001.2
18 17.07 В 5 8000 м 3/1 600 м
[Cu hum Ci fib]
+23.8 +19.7 78 +29 +29 душно 1012.8 1000.6
21 17.07 ЮВ 3 8000 м 3/1 600 м
[Cu hum Ci fib]
+22.6 +19.4 82 +29 +29 очень
душно
1012.9 1000.7
00 18.07 В 6 10 км 1/1 600 м
[Cu hum Ci fib]
+25.6 +21.3 77 +32 +34 очень
душно
1013.7 1001.5 +22.4
06 18.07 В 7 10 км 3/1 600 м
[Cu hum Ci fib]
+31.2 +19.7 50 +37 +39 очень
душно
1010.2 998.0
09 18.07 В 5 8000 м 3/1 600 м
[Cu hum Ci fib]
+27.5 +20.5 66 +34 +34 очень
душно
1011.0 998.8
12 18.07 ЮВ 6 8000 м 4/1 600 м
[Cu hum Ci fib]
+24.6 +20.0 76 +30 +30 очень
душно
1012.7 1000.5 +31.3
15 18.07 В 3 8000 м 3/1 540 м
[Cu hum Ci fib]
+23.4 +19.0 76 +30 +30 очень
душно
1013.0 1000.8

 

Местоположение метеостанции Купанг (Индонезия): широта -10.16 долгота 123.66 высота над уровнем моря 108 м.

В архиве по умолчанию представлена погода в Купанге за последнюю неделю. Архивные данные за месяц целиком и за предыдущие месяцы, начиная с января 2011 года, Вы можете получить, выбрав интересующий диапазон дат из раскрывающегося списка и нажав кнопку "Ввод!".


*Определитесь, кто Вы:
робот инопланетянин человек

Внимание! Время в таблицах - всемирное. Для получения местного времени необходимо прибавить поправку, которая равна 8 ч.

Смотрите также архив погоды в соседних городах и на ближайших метеорологических станциях:

Погода на Роти (Индонезия) (90 км)
Погода в Сабу (Индонезия) (204 км)
Погода в Ларантуке (Индонезия) (223 км)
Погода в Маумере (Индонезия) (230 км)
Погода на Алоре (Индонезия) (237 км)
Погода в Аэропорту Умбу Механг Кунда (Индонезия) (369 км)
Погода в Рутенге (Индонезия) (391 км)
Погода на Острове Брауз (Западная Австралия, Австралия) (440 км)
Погода на Острове Троутон (Западная Австралия, Австралия) (483 км)
Погода в Трускотте (Западная Австралия, Австралия) (527 км)

Пояснения к столбцам:

Ветер - указаны скорость ветра в м/с - средняя за 10 мин, порывы в срок и между сроками (в фигурных скобках) и направление, откуда дует ветер: С - северный, СВ - северо-восточный, В - восточный, ЮВ - юго-восточный, Ю - южный, ЮЗ - юго-западный, З - западный, СЗ - северо-западный.
Видимость - горизонтальная дальность видимости в метрах или километрах. При видимости от 1 до 10 км при отсутствии осадков обычно наблюдается дымка, при ухудшении видимости до 1 км и менее - туман. В сухую погоду видимость может ухудшаться дымом, пылью или мглою.
Явления - указаны атмосферные явления, наблюдавшиеся в срок или в последний час перед сроком; фигурными скобками обозначены явления, наблюдавшиеся между сроками (за 1-3 часа до срока); квадратными скобками обозначены град или гололедные отложения с указанием их диаметра в мм.
Облачность - указаны через наклонную черту общая и нижняя облачность в баллах и высота нижней границы облаков в метрах; квадратными скобками обозначены формы облаков: Ci - перистые, Cs - перисто-слоистые, Cc - перисто-кучевые, Ac - высококучевые, As - высокослоистые, Sc - слоисто-кучевые, Ns - слоисто-дождевые, Cu - кучевые, Cb - кучево-дождевые. Подробнее классификацию облаков см. в Атласе облаков (PDF).
T - Температура воздуха - температура, измеренная на высоте 2 м над землей.
Td - Температура точки росы - температура, при понижении до которой содержащийся в воздухе водяной пар достигнет насыщения.
f - Относительная влажность воздуха - влажноcть воздуха, измеренная на высоте 2 м над землей.
Te - Эффективная температура - температура, которую ощущает одетый по сезону человек в тени. Характеристика душности погоды. При расчете учитывается влияние влажности воздуха и скорости ветра на теплоощущения человека.
Tes - Эффективная температура на солнце - температура, которую ощущает человек, с поправкой на солнечный нагрев. Характеристика знойности погоды. Зависит от высоты солнца над горизонтом, облачности и скорости ветра. Ночью, в пасмурную погоду, а также при ветре 12 м/с и более поправка равна нулю.
P - Атмосферное давление - приведенное к уровню моря атмосферное давление.
Po - Атмосферное давление - измеренное на уровне метеостанции атмосферное давление.
Tmin - Минимальная температура - минимум температуры воздуха на высоте 2 м над землей.
Tmax - Максимальная температура - максимум температуры воздуха на высоте 2 м над землей.
R - Количество осадков - Количество выпавших осадков за период времени, мм. При наведении курсора мыши на число - период времени, за который выпало указанное количество осадков.
R24 - Количество осадков - Количество выпавших осадков за 24 часа, мм.
S - Снежный покров - Высота снежного покрова, см. При наведении курсора мыши на число - состояние снежного покрова и степень покрытия местности в баллах.